RH
7 7 6 6 7 6 6 6 6 8 9 7 6 5 4 5 5 7 11 16 18 18 18 24 39 38 29 33 29 27 31 34 37 37 35 33 32 30 40 54 51 42 33 33 33 28 25 28 38 44 47 50 49 47 46 44 42 40 39 39 38 37 35 34 32 31 29 28 27 24 18 14 10 10 11 12 13 15 17 19 19 19 19 19 19 19 19 18 18 19 19 20 21 23 26 27 26
7 7 7 7 7 6 6 7 6 8 10 9 6 4 4 3 6 10 14 20 22 20 20 28 44 39 30 38 36 34 38 38 41 43 41 40 38 39 52 57 49 44 38 34 31 26 25 29 37 44 49 52 51 49 48 46 44 42 41 40 40 39 37 36 34 32 31 30 29 26 21 16 11 10 11 12 13 15 18 19 20 20 20 20 19 20 19 19 18 19 19 20 21 23 25 27 27
7 7 7 7 7 7 6 8 7 8 8 7 4 3 5 5 9 12 14 19 22 22 20 34 53 45 36 44 40 36 37 36 43 45 38 39 43 45 49 50 48 47 42 32 27 26 27 32 37 44 52 53 53 52 50 48 45 44 43 43 42 41 40 38 37 35 34 32 31 29 24 18 13 10 10 12 14 15 18 20 21 20 21 20 20 20 20 19 19 20 20 20 21 23 24 27 28
7 7 7 7 7 7 7 7 8 8 7 5 4 4 6 9 12 13 16 17 21 24 20 41 59 46 40 44 40 36 35 36 43 41 31 33 41 46 42 42 45 44 40 32 29 30 32 37 40 47 54 56 55 54 52 50 47 47 46 45 45 44 43 42 42 41 39 36 35 32 27 21 14 10 10 12 14 16 19 21 21 21 21 21 21 21 21 20 20 21 21 21 21 23 24 25 26
7 7 7 7 6 7 7 7 8 7 5 5 4 5 8 11 14 15 17 16 22 28 22 42 57 46 43 41 37 37 35 34 36 33 30 31 34 44 44 40 43 41 38 33 33 35 37 43 46 51 57 59 57 55 53 51 50 50 49 49 48 48 48 48 47 46 44 41 39 36 32 25 17 12 10 12 14 16 20 22 22 22 22 22 21 21 21 21 21 21 21 21 22 23 24 24 24
7 7 7 7 6 8 9 8 7 5 4 5 4 5 8 9 12 13 15 17 26 33 28 37 49 47 46 39 35 37 36 34 37 35 34 35 32 38 42 43 44 40 38 35 36 37 40 47 52 56 60 61 58 56 54 54 54 53 53 53 54 54 54 53 52 50 48 46 43 40 36 30 21 12 11 13 15 17 20 23 23 23 22 22 21 22 22 22 22 21 21 21 22 23 25 25 23
7 7 7 7 6 8 10 8 6 5 5 5 5 4 6 7 9 11 14 18 25 35 37 41 48 52 49 39 36 38 36 34 38 39 40 41 37 35 36 43 46 39 37 36 37 39 44 54 61 65 65 63 60 58 58 59 59 58 59 58 58 57 56 54 52 51 49 48 46 44 40 34 26 14 11 14 17 18 21 23 23 23 23 22 22 22 22 22 22 22 22 21 22 24 25 25 24
7 7 6 7 7 8 8 7 6 5 5 5 5 4 6 8 11 12 12 16 19 29 43 53 58 60 53 38 36 39 33 30 31 36 42 42 40 39 35 40 43 37 36 35 37 42 52 63 70 71 67 65 63 63 63 64 63 62 62 60 58 54 51 48 46 47 47 48 47 46 43 37 29 17 12 14 17 19 21 23 24 24 23 23 23 24 23 23 23 22 22 22 23 24 25 26 25
7 7 7 8 7 8 7 6 6 5 5 5 5 5 8 10 13 14 12 14 18 26 41 58 62 61 53 35 31 35 29 25 25 30 37 39 39 40 37 38 39 36 35 35 39 48 60 71 76 73 69 68 68 69 69 67 64 60 56 51 48 44 43 42 43 46 48 50 49 48 46 40 31 19 13 14 17 19 21 24 24 24 24 23 23 24 25 24 24 23 23 22 23 24 25 27 26
7 7 7 8 8 8 6 6 6 5 5 5 6 8 11 14 16 14 12 13 16 24 38 52 52 52 50 34 26 26 24 23 23 26 30 33 34 37 39 38 38 38 36 38 48 58 68 77 78 74 72 74 74 72 68 60 52 46 43 41 40 40 42 44 47 49 51 53 52 51 49 43 33 21 15 15 17 18 21 24 25 25 24 24 23 24 25 25 24 24 23 23 23 24 25 26 27
7 7 7 8 8 7 6 6 5 5 5 5 7 13 15 16 15 12 12 13 13 16 27 41 41 42 45 32 21 18 18 20 17 20 25 27 29 33 40 40 38 42 47 47 56 65 72 78 77 76 77 76 71 62 53 44 40 38 38 39 39 40 42 45 49 51 51 52 55 56 54 48 37 26 19 16 16 18 21 23 25 25 25 24 24 24 25 26 25 25 24 24 24 24 25 26 26
6 6 7 8 8 7 6 6 5 5 5 5 10 16 18 16 14 11 10 12 12 12 15 26 30 35 40 30 20 15 15 16 14 16 23 26 26 31 39 44 43 51 64 63 64 71 75 78 77 78 73 65 57 47 41 38 37 37 38 37 37 39 44 49 54 55 54 58 64 65 61 54 45 34 25 18 16 19 21 23 25 25 25 25 24 24 25 25 26 26 26 25 25 24 24 25 26
7 6 6 7 7 7 6 6 5 5 5 9 14 16 18 16 12 11 11 11 11 11 12 17 21 30 36 31 23 18 17 18 17 19 23 26 29 33 39 49 54 64 80 79 76 79 80 81 76 68 57 50 45 41 40 37 35 35 34 34 37 45 51 56 60 62 64 70 75 74 69 61 52 41 30 22 18 19 22 23 24 25 25 25 25 25 25 25 26 27 27 26 26 25 25 25 26
6 6 6 8 8 7 6 6 6 5 7 14 16 16 22 20 14 14 10 10 12 10 13 17 23 32 32 27 23 19 19 20 22 23 23 27 34 37 41 55 67 76 89 91 89 86 82 76 64 53 46 43 41 38 36 33 31 31 32 36 44 53 61 65 68 73 77 81 83 81 76 68 60 48 36 29 22 19 22 24 24 26 26 25 26 25 25 25 25 26 26 27 26 26 26 26 26
6 6 7 8 7 7 6 6 6 5 10 16 16 16 25 28 28 31 20 9 11 11 12 17 25 32 27 22 24 24 22 20 24 26 25 29 37 42 46 59 73 84 94 96 92 83 72 62 53 49 45 41 37 33 30 29 29 32 38 45 53 62 69 73 76 81 84 86 86 82 78 75 70 58 45 34 30 24 20 22 24 25 26 26 26 25 25 25 25 25 25 26 26 26 26 26 26
7 7 7 7 6 6 6 6 6 6 11 16 17 16 21 29 31 41 43 27 19 14 11 16 22 24 25 27 27 29 29 25 27 29 29 33 40 47 51 61 75 87 92 91 83 72 62 55 51 47 41 35 29 28 28 30 32 39 48 53 60 67 73 75 80 86 86 86 84 80 79 80 77 69 54 42 44 39 22 19 24 25 26 26 26 26 25 25 25 25 25 25 25 25 25 26 27
7 7 7 7 6 6 6 6 7 6 11 15 17 16 17 23 20 29 44 40 32 24 17 18 21 23 28 33 29 28 30 29 30 32 33 35 42 51 56 62 72 79 79 74 68 60 53 50 48 40 31 26 23 25 29 33 39 49 56 59 63 67 71 75 80 85 85 85 82 79 82 85 81 69 58 48 50 47 27 20 24 25 26 26 27 27 26 26 25 25 25 25 25 25 25 25 26
7 7 7 6 5 6 5 6 7 6 11 14 16 17 16 19 17 19 26 34 40 31 25 25 27 31 31 33 31 27 29 31 32 34 36 38 48 57 60 63 65 67 63 58 56 50 44 43 39 30 22 20 21 25 31 39 45 53 58 60 63 63 67 74 79 84 84 85 83 81 84 87 84 70 57 44 42 48 40 28 23 23 26 27 27 27 27 27 26 26 25 25 25 24 25 25 26
7 7 7 7 6 6 6 6 7 6 8 12 15 16 16 18 17 17 17 33 52 41 34 35 32 34 32 36 36 32 36 35 35 40 40 43 59 68 65 64 63 61 56 52 50 42 38 36 29 21 19 20 23 29 35 42 47 52 56 57 60 62 67 74 81 85 85 86 83 84 87 87 86 78 63 43 34 41 43 30 21 21 24 26 29 29 28 28 27 27 27 26 26 25 25 25 25
7 8 7 6 6 6 6 6 7 7 8 9 12 14 16 17 16 17 16 31 56 51 41 40 35 34 33 37 38 36 38 38 39 41 44 57 77 85 74 61 57 58 57 51 44 36 33 31 23 18 20 23 26 30 35 42 47 50 52 53 57 61 67 76 83 87 88 88 85 86 89 86 86 84 73 55 36 31 32 27 22 20 21 24 27 28 28 29 29 29 28 27 27 26 26 26 26
9 9 7 6 6 6 6 7 7 7 8 8 10 13 14 16 16 17 17 25 42 44 43 43 38 37 34 35 35 34 35 36 37 39 59 82 90 93 85 70 62 61 57 49 44 39 33 27 22 20 22 24 25 29 36 45 49 49 49 51 55 60 67 75 82 86 88 88 87 89 89 88 90 89 81 66 48 40 37 32 26 21 21 25 26 25 27 30 30 30 29 29 29 29 27 27 26
11 10 7 6 6 7 6 7 8 7 9 9 9 13 14 15 16 16 17 19 26 34 45 48 40 37 36 33 30 31 34 35 40 55 84 97 87 89 92 82 77 70 57 49 48 45 35 27 22 20 24 27 29 34 42 48 49 50 49 50 55 60 66 73 78 80 82 84 87 90 90 90 93 94 90 80 67 59 52 47 40 28 23 25 25 23 25 29 29 27 26 27 27 26 26 26 26
11 10 7 7 7 7 7 8 9 8 10 11 12 14 14 14 15 16 16 15 17 25 38 47 48 41 34 28 24 29 40 50 67 85 99 101 92 92 88 75 77 75 57 43 41 38 30 25 22 27 35 39 40 42 47 51 53 53 50 51 56 61 65 68 73 74 77 83 89 92 92 92 92 94 95 89 82 71 62 60 54 48 40 28 22 25 31 37 37 33 30 30 30 32 34 35 36
10 9 7 7 10 10 9 11 11 11 11 12 14 15 14 14 15 15 15 15 16 21 26 35 48 43 29 23 25 41 57 66 81 89 90 96 94 90 86 77 79 80 55 31 28 29 25 22 22 29 33 36 41 44 49 55 56 55 53 55 58 61 65 67 70 73 78 84 90 94 94 94 93 95 94 85 80 73 66 63 56 56 51 38 35 42 47 48 50 48 43 42 43 43 44 45 46
8 6 7 8 12 13 13 17 16 13 11 12 15 14 13 14 16 14 15 14 14 19 21 30 46 42 28 27 39 60 67 62 68 73 72 78 77 73 80 81 76 69 51 34 33 37 37 33 29 29 29 35 46 50 52 55 55 55 56 57 59 63 67 69 73 76 82 85 88 95 96 96 95 96 93 80 75 73 69 65 60 57 52 51 54 54 51 48 53 56 50 48 47 46 47 50 52
8 6 8 8 11 13 15 19 18 13 10 12 14 13 12 14 15 14 14 14 13 15 16 27 41 38 31 34 49 63 58 52 57 66 66 65 64 57 61 71 69 64 58 52 50 49 46 41 40 39 39 43 49 51 53 54 54 56 56 57 60 65 67 70 76 78 80 82 88 97 97 93 93 96 92 81 76 74 70 66 64 63 59 60 59 53 52 51 54 56 51 49 47 46 50 53 55
11 12 12 9 9 11 14 17 17 14 10 12 14 11 12 13 15 14 13 14 13 14 16 21 23 25 30 34 46 48 41 47 49 53 59 58 56 47 44 52 57 63 65 57 50 48 43 39 41 41 40 40 41 46 52 54 56 57 56 58 61 64 67 72 77 78 78 81 88 95 93 90 91 94 90 82 79 75 71 71 71 69 64 61 57 53 53 53 53 54 51 49 47 50 53 55 56
19 20 18 13 12 12 12 14 15 14 11 12 14 12 11 13 14 13 13 13 12 16 20 20 14 18 27 32 44 38 34 50 44 36 43 45 45 42 40 40 38 47 56 55 48 45 40 38 41 40 39 41 44 50 55 56 56 56 56 61 63 62 67 72 75 79 80 82 85 86 86 88 90 89 85 80 81 79 73 74 74 69 64 61 58 54 54 54 54 54 50 48 48 51 53 56 57
28 27 21 18 18 16 12 13 14 14 12 13 14 13 11 12 14 13 13 13 14 17 20 20 15 16 23 34 52 44 37 49 42 32 33 35 41 42 42 41 37 35 40 44 42 37 36 37 40 41 44 47 53 58 58 57 56 56 58 61 61 61 66 71 74 78 79 79 78 77 79 82 84 82 79 77 79 78 71 69 69 66 62 60 60 58 57 57 56 53 50 48 48 50 53 56 57
30 28 24 20 19 17 15 15 16 14 13 14 15 14 11 11 14 14 14 14 14 16 17 17 15 17 21 34 52 43 31 36 34 33 32 33 45 50 48 46 44 40 36 37 36 35 36 38 39 43 49 53 58 61 59 60 58 57 59 60 59 61 66 71 74 77 77 76 72 71 74 76 77 75 74 74 74 72 69 66 66 65 63 61 61 60 59 58 55 53 50 49 49 51 54 55 56
27 25 23 21 19 18 17 17 17 15 14 14 14 15 13 12 14 14 14 14 14 14 15 15 15 19 18 26 43 38 25 26 29 31 32 37 47 51 51 49 48 48 45 44 38 33 32 36 40 46 55 59 62 63 61 62 60 58 60 60 61 62 66 72 75 78 77 73 69 68 71 74 75 74 73 71 70 69 69 68 67 68 68 66 64 63 61 57 54 52 49 49 50 53 53 54 58
25 24 22 20 20 19 17 17 17 16 15 15 15 15 13 13 14 15 15 14 15 14 14 14 14 17 14 19 37 37 24 25 29 29 29 36 45 48 50 48 47 48 45 42 34 28 30 38 44 52 60 65 66 65 63 63 60 59 60 60 61 63 67 73 76 79 78 73 69 70 72 74 76 76 75 72 71 71 71 71 71 71 71 69 67 63 59 56 53 52 50 51 53 54 54 56 61
24 24 23 22 21 21 19 18 17 17 17 16 16 16 15 14 14 15 15 15 15 14 14 14 14 15 12 17 37 39 24 23 29 27 25 31 36 40 46 44 40 42 41 39 36 33 37 43 48 54 61 66 68 66 64 63 61 59 59 61 62 63 68 74 79 81 79 77 76 77 78 78 78 78 77 75 73 73 72 72 71 69 67 66 63 59 57 56 54 51 51 53 54 55 57 60 63
25 24 24 23 21 21 20 18 18 19 18 17 18 18 17 16 15 15 15 15 15 14 14 14 14 15 12 16 34 38 23 21 28 27 26 29 28 29 39 41 35 36 37 39 39 39 45 51 53 55 59 65 69 67 66 65 63 60 60 62 62 63 69 74 79 82 82 82 83 84 83 81 79 78 76 74 70 68 67 66 65 63 60 59 56 54 55 56 53 50 50 54 55 57 60 61 63
25 25 23 22 21 20 19 18 18 19 19 19 20 19 18 16 14 14 14 15 15 14 14 14 14 14 12 12 20 23 15 19 29 29 28 29 26 26 34 38 34 34 36 39 41 43 50 54 54 55 59 66 68 67 68 67 64 61 60 62 62 64 68 72 77 83 84 83 81 82 81 79 77 75 72 69 66 64 64 64 62 60 59 58 56 54 54 55 54 51 52 56 59 60 62 63 64
28 26 24 23 22 19 19 18 18 20 21 21 20 19 18 16 15 16 16 16 15 14 14 13 14 13 13 12 11 12 10 17 30 32 29 29 28 29 32 34 34 34 36 39 40 45 52 52 51 56 63 68 68 67 69 69 65 62 61 62 63 63 64 65 70 76 77 74 73 75 75 74 73 71 68 66 63 61 62 65 64 63 63 61 58 57 57 58 57 55 55 57 58 59 61 62 64
33 30 27 25 23 19 18 19 19 20 21 21 21 21 20 17 17 17 19 19 16 15 15 14 13 12 12 12 10 11 9 16 31 34 30 30 30 31 32 34 35 36 38 39 40 46 53 51 49 54 64 69 68 69 71 69 65 64 62 63 64 65 65 59 58 64 66 67 68 68 69 69 69 68 67 65 62 60 61 63 64 64 63 61 61 62 60 59 57 55 55 55 52 54 57 60 65
34 32 30 28 25 21 18 18 18 19 22 22 23 24 21 19 19 19 19 20 18 17 16 15 13 12 12 11 11 11 10 16 30 33 29 30 32 33 35 34 35 38 39 39 41 48 52 49 46 50 62 68 69 71 73 70 67 67 66 66 67 69 69 64 60 61 61 62 64 64 67 68 66 65 62 61 61 62 65 64 63 62 60 60 62 63 60 56 54 51 49 50 50 52 58 64 67
34 33 31 28 25 23 19 17 17 18 22 25 26 26 23 20 20 20 19 19 18 18 18 16 13 12 12 11 11 11 11 16 26 31 30 32 34 35 35 35 37 39 40 40 41 47 50 47 44 47 59 68 70 73 75 72 70 70 69 69 71 73 74 71 67 63 60 62 63 65 68 65 59 53 48 49 51 55 63 65 65 64 63 62 61 60 58 54 51 49 47 50 53 55 62 68 67
31 32 32 29 25 24 20 15 15 18 23 27 28 27 23 21 20 18 16 17 17 17 17 16 14 12 12 11 12 12 11 13 20 28 33 37 37 37 36 37 39 40 41 41 41 45 48 47 46 48 57 67 72 76 77 74 71 71 69 68 69 71 73 72 67 64 63 64 66 66 64 57 48 39 31 32 34 38 47 54 58 60 61 61 59 57 55 50 48 50 52 57 60 62 65 66 63
28 28 29 29 24 22 18 14 15 20 26 29 28 27 23 21 22 19 15 15 15 15 16 15 13 12 12 12 12 12 12 14 20 28 36 41 39 38 39 40 41 42 44 43 42 46 49 48 48 51 59 67 73 79 79 75 71 69 67 63 62 65 67 65 63 65 66 65 65 61 51 41 34 26 21 21 22 25 30 35 40 44 47 49 49 50 52 52 50 50 54 59 63 66 65 64 63
25 23 24 24 19 16 16 16 20 24 28 27 26 31 30 23 23 23 17 16 15 15 15 13 13 12 11 12 11 11 12 16 27 37 42 43 42 42 43 43 43 43 45 45 45 47 49 50 51 54 61 68 74 79 81 78 71 68 65 59 59 63 64 62 63 66 65 61 55 43 30 24 20 16 14 14 14 16 17 20 23 25 27 29 30 34 41 45 47 49 54 58 63 65 65 66 65
25 22 18 17 17 18 20 22 24 26 28 27 26 31 31 25 27 28 22 18 16 15 15 13 12 11 10 10 11 11 11 18 32 45 48 45 45 46 45 45 46 46 46 46 45 44 46 50 52 52 58 65 72 78 81 79 72 68 64 58 61 67 69 67 64 61 57 48 35 22 16 15 13 11 10 10 10 9 10 11 11 13 15 16 18 20 22 25 30 38 47 54 60 63 65 67 66
22 17 16 20 21 22 23 24 26 28 29 27 24 26 27 25 30 34 27 20 16 14 13 11 11 10 10 10 10 12 17 24 36 47 50 48 49 49 47 48 49 48 48 46 43 41 44 48 48 48 54 63 72 79 84 82 74 71 66 59 63 68 67 64 59 55 46 31 18 13 12 12 12 13 12 11 11 9 8 8 8 10 11 11 13 14 14 15 18 23 32 44 56 63 66 68 67
20 18 21 23 24 25 26 26 29 31 31 26 20 24 30 29 31 34 30 22 18 14 11 10 10 9 10 11 12 18 25 34 44 51 51 51 52 51 49 51 52 51 49 44 41 41 44 47 46 47 54 62 72 81 87 84 78 75 68 62 65 62 55 54 53 45 30 17 14 14 13 13 15 15 14 13 13 11 10 9 7 8 8 8 12 16 18 19 19 19 23 31 43 53 59 63 63
22 23 25 24 25 26 25 29 30 31 33 26 19 22 30 33 30 29 31 28 24 22 17 14 13 12 13 16 20 28 35 42 51 56 54 53 55 53 52 54 53 51 48 44 41 41 44 45 43 46 54 63 74 84 87 85 83 78 71 68 65 54 47 50 46 32 17 13 15 15 15 18 19 19 19 18 17 15 14 11 9 7 6 7 11 16 20 23 24 23 23 25 29 38 48 52 52
23 24 25 23 24 25 26 32 29 31 39 29 18 21 27 35 34 30 33 33 29 27 23 20 18 15 16 21 28 35 43 51 57 58 56 57 56 54 54 55 54 51 48 45 40 39 42 40 38 49 62 71 81 86 85 87 87 79 73 72 61 46 44 43 31 19 14 15 16 17 20 23 26 28 28 24 20 18 16 13 10 8 6 7 9 12 15 19 25 26 27 30 33 41 49 52 52
24 26 27 24 27 28 28 31 25 34 47 31 19 23 25 32 37 35 36 33 30 28 25 25 22 17 21 29 38 47 55 62 65 63 62 60 56 54 55 56 55 52 48 44 38 37 40 36 38 57 70 74 81 84 82 87 87 79 75 69 53 42 41 31 19 14 14 16 18 21 26 29 31 34 32 27 23 19 16 13 10 9 7 6 7 8 9 12 18 22 25 32 41 51 57 59 61
24 27 28 29 32 30 36 48 42 39 40 25 21 26 26 34 37 36 36 31 30 29 26 28 26 23 28 37 50 69 79 76 72 72 68 61 55 55 56 56 55 54 49 44 38 36 38 36 46 68 76 75 81 85 85 85 81 78 76 64 47 42 38 25 16 16 16 18 23 27 31 34 35 36 36 33 30 25 21 16 12 9 7 6 6 6 7 9 10 12 15 19 29 41 49 55 60
24 26 27 31 37 38 52 69 58 40 32 23 26 29 30 42 42 34 34 31 29 28 26 29 30 31 37 45 60 81 91 83 73 71 68 61 57 57 57 56 57 56 50 44 38 36 38 39 48 71 80 78 84 88 85 81 73 69 66 53 42 42 38 25 17 17 19 23 29 32 35 37 38 39 38 38 35 30 25 20 14 10 8 7 7 7 7 8 8 8 9 9 14 22 30 38 47
22 25 26 28 34 36 44 55 48 38 35 30 29 31 36 51 52 39 34 33 31 29 28 30 32 38 50 61 68 74 77 72 62 59 60 60 59 59 58 58 60 60 52 44 40 38 40 41 48 69 82 82 87 86 77 73 68 61 55 45 40 43 36 24 17 19 25 30 33 36 37 39 39 39 38 39 37 34 28 23 17 13 10 8 7 7 7 7 8 8 8 9 10 13 16 20 29
23 27 29 28 28 27 29 37 37 36 40 40 41 47 54 61 61 49 39 35 33 34 32 31 34 40 50 58 59 58 58 58 53 54 61 63 63 63 62 62 64 63 54 45 44 42 42 48 57 72 83 84 86 80 69 68 61 53 49 39 37 42 33 21 19 24 31 35 36 38 39 38 37 37 38 38 38 37 33 27 22 17 13 10 8 7 7 7 7 7 8 8 9 10 11 12 17
24 26 29 28 26 25 26 33 37 37 41 47 54 62 63 63 63 53 43 37 34 37 38 35 37 43 47 49 47 48 51 52 53 58 64 68 69 68 65 66 70 65 53 48 49 48 51 65 73 75 77 77 77 71 65 64 56 51 50 38 36 42 31 20 24 30 34 38 38 39 38 37 35 36 37 37 38 39 37 34 29 23 17 13 11 9 8 7 7 7 7 8 9 9 10 10 11
25 25 26 25 25 27 25 32 46 48 46 49 60 71 68 66 68 55 43 40 36 40 44 43 46 49 50 50 51 55 55 52 54 60 66 73 77 73 67 71 74 64 54 52 54 51 58 74 78 73 70 68 69 70 67 65 59 57 54 42 37 38 28 23 28 32 36 39 40 39 37 36 36 36 36 36 38 39 39 38 33 28 23 17 13 11 10 9 8 7 7 7 8 8 9 10 10
24 24 25 24 27 31 27 32 46 50 53 56 66 81 75 63 62 53 45 44 42 44 49 50 52 55 56 58 62 69 67 60 61 64 69 78 87 85 77 76 76 65 57 59 60 55 57 70 73 66 64 64 68 74 72 67 64 60 55 48 41 33 26 27 30 34 39 40 41 39 37 38 38 37 36 37 39 40 40 39 35 31 25 19 15 13 12 11 10 10 9 8 8 7 7 8 8
25 24 27 26 27 31 30 33 36 39 57 65 66 81 78 57 53 54 50 49 46 48 56 59 58 60 63 65 69 76 77 73 69 64 69 82 92 93 84 77 76 71 66 66 67 63 60 69 71 61 58 64 71 76 75 71 67 60 55 53 48 36 27 28 30 36 41 42 41 40 39 40 39 38 38 38 40 41 41 41 38 32 26 21 18 16 16 16 15 15 15 13 12 10 9 8 8
26 26 28 27 27 31 32 35 32 33 56 74 77 84 73 51 51 56 52 51 50 54 63 66 66 68 68 66 70 77 79 77 72 68 76 86 89 87 82 78 77 79 78 72 71 70 68 73 74 65 64 68 70 72 73 71 66 60 54 54 55 46 33 29 30 36 42 43 42 41 41 42 41 40 40 40 42 43 42 43 41 35 29 23 20 20 21 22 23 24 24 22 20 17 15 14 13
28 26 27 26 26 29 33 40 37 32 43 59 73 81 66 47 51 59 56 55 57 65 74 76 77 78 74 70 72 75 75 76 77 78 82 85 81 75 73 74 76 79 80 76 76 77 75 75 72 68 68 67 65 67 70 72 69 62 56 54 57 52 38 32 30 32 40 44 43 43 44 43 43 42 42 42 43 44 44 45 44 40 33 27 25 26 28 30 32 33 34 33 32 31 29 28 25
Wind_Speed
13 12 12 11 10 10 11 10 9 11 13 14 16 17 15 10 7 3 2 5 7 7 6 5 8 9 6 4 3 2 2 2 3 5 5 5 7 13 16 14 15 17 18 18 17 17 17 17 17 17 15 15 14 13 12 11 10 9 8 7 6 6 5 5 5 4 4 4 4 6 8 10 12 13 14 13 14 14 14 14 13 12 11 10 9 8 8 7 7 8 8 9 10 12 14 13 13
13 12 12 10 10 11 11 10 9 11 12 15 17 16 13 10 9 2 3 7 6 5 5 2 8 6 1 2 1 3 2 3 3 1 0 1 5 12 15 13 14 16 15 14 14 16 16 17 17 16 16 15 14 13 13 12 10 9 8 7 6 6 5 5 5 5 4 4 5 6 8 10 12 14 15 14 14 14 15 15 14 13 12 11 10 9 9 8 7 8 8 8 10 12 13 13 13
13 12 11 10 11 11 11 11 11 9 11 17 18 12 9 6 4 0 4 9 6 7 6 1 5 3 3 3 4 3 2 5 6 4 3 2 4 10 14 13 15 16 15 13 14 15 15 16 17 16 16 16 15 14 13 11 10 9 8 7 6 6 6 5 5 4 4 5 5 6 7 9 11 14 15 15 15 15 16 16 15 14 13 12 11 10 9 8 8 8 8 8 9 11 12 12 12
13 12 11 11 12 12 12 13 13 13 14 17 13 6 3 2 3 0 5 10 8 9 8 6 3 3 6 7 5 3 3 5 7 5 3 4 5 8 10 11 14 16 16 15 15 15 15 16 17 17 17 16 15 14 12 10 9 8 7 7 6 6 5 4 4 4 4 5 6 6 7 9 11 14 16 16 16 16 17 17 16 15 15 14 12 11 10 9 9 8 8 8 8 10 11 11 11
13 13 12 12 12 12 13 13 15 17 17 14 9 2 0 2 1 2 5 9 9 8 8 10 10 7 6 8 6 6 7 6 7 4 5 6 5 10 11 12 15 17 18 17 16 16 16 17 17 17 17 16 15 13 11 9 8 8 7 6 5 4 3 3 3 3 4 5 6 6 7 9 11 13 15 16 16 17 18 18 17 16 16 14 13 12 12 11 10 9 8 8 8 8 10 10 9
13 13 13 12 13 13 13 14 16 18 16 14 12 4 2 4 5 7 4 5 7 6 9 10 11 8 9 9 6 6 6 6 7 5 7 7 6 12 13 14 17 18 19 18 18 18 18 18 17 17 17 16 14 12 10 8 8 7 5 4 4 3 2 2 3 4 5 5 6 7 9 10 11 13 15 16 17 17 18 18 17 17 16 15 13 13 12 11 10 9 8 8 7 8 9 9 8
13 13 13 14 14 14 14 17 18 19 16 14 13 7 5 7 9 9 4 3 4 3 7 11 10 8 7 6 5 5 3 3 5 5 8 7 7 11 13 16 18 19 19 19 20 20 19 18 17 17 16 15 13 11 9 8 7 6 4 3 3 2 2 3 4 5 6 7 8 9 10 11 12 14 17 18 19 18 18 18 18 17 16 15 14 13 13 12 11 10 9 8 8 8 8 8 7
13 14 14 14 14 14 16 18 18 18 16 12 12 9 6 6 10 11 7 6 5 4 7 13 12 10 7 5 5 4 2 2 1 3 6 6 7 9 12 16 19 20 21 21 21 21 20 19 17 16 15 13 11 10 8 7 6 4 3 2 2 2 3 4 5 6 7 8 9 11 12 13 14 15 18 20 20 20 19 19 18 17 16 16 15 14 13 13 12 11 10 9 9 8 8 8 7
14 14 14 14 15 15 16 19 18 17 14 11 10 7 5 9 14 15 11 8 7 7 10 15 13 11 10 8 6 3 4 5 2 1 2 3 5 8 10 15 19 20 21 22 22 21 20 18 17 15 14 12 10 9 7 6 4 3 2 1 1 2 3 4 5 7 8 9 10 11 13 14 15 16 18 20 21 21 21 20 19 18 17 16 16 15 14 13 13 12 11 10 9 9 8 8 8
14 15 15 15 15 16 17 18 17 13 10 9 5 3 8 14 17 17 12 9 8 9 12 15 14 13 12 9 7 4 5 5 5 5 3 3 3 6 9 13 17 18 20 20 20 20 19 17 16 15 13 11 9 8 6 5 3 2 1 1 1 2 3 4 6 8 8 9 11 12 13 15 15 16 18 20 22 22 22 22 21 19 18 17 17 16 15 14 14 13 12 11 10 10 9 9 8
16 16 16 16 16 16 17 17 16 12 9 8 3 7 12 15 16 15 12 11 10 10 14 15 14 15 14 10 8 7 8 8 8 8 7 6 5 6 8 12 14 15 16 17 18 18 17 17 16 14 12 10 9 7 5 4 3 2 1 1 1 2 4 5 7 8 9 10 12 13 13 14 14 15 17 20 22 23 23 23 22 21 20 18 18 17 16 15 15 14 13 13 11 10 10 10 9
17 18 18 18 17 16 17 18 16 11 8 6 3 8 11 13 13 13 12 12 12 11 12 15 13 13 15 13 10 9 9 10 11 11 9 7 7 8 9 12 13 14 15 15 17 17 17 16 14 13 11 10 9 7 5 4 3 2 1 1 2 4 5 6 7 8 9 11 12 12 12 12 13 14 17 20 22 24 25 24 23 22 21 19 19 18 17 16 16 15 15 14 13 12 11 10 10
17 18 18 18 17 16 16 17 15 11 6 1 3 8 10 9 10 12 13 12 13 13 10 11 11 11 14 12 10 10 10 11 12 12 10 8 8 9 10 12 14 15 17 16 16 16 16 14 12 12 11 10 9 7 5 4 2 1 1 3 4 5 5 6 7 9 10 11 11 10 10 10 12 14 17 19 22 24 25 25 24 23 21 20 19 19 18 17 17 17 16 15 14 13 12 12 11
17 18 18 16 15 15 16 17 15 13 4 4 4 9 12 7 5 6 10 11 11 12 9 9 11 11 11 10 9 9 10 13 13 12 10 9 9 9 11 13 15 16 17 16 16 16 15 14 12 11 11 9 8 6 5 2 1 1 3 4 4 4 5 7 8 10 10 10 9 8 9 10 12 14 17 19 21 23 25 25 24 23 22 21 20 20 18 18 18 18 17 16 15 14 14 13 13
18 18 17 16 15 15 17 17 16 14 3 5 4 10 13 7 4 5 3 7 8 10 10 10 11 11 10 9 8 8 11 14 14 13 12 11 12 12 13 15 17 18 19 18 16 16 15 14 12 11 9 8 7 5 3 1 1 2 3 3 4 5 6 7 8 10 10 9 8 8 9 11 12 13 16 19 20 22 24 25 25 24 24 23 21 20 20 19 19 19 18 17 16 16 15 15 15
19 19 18 16 16 17 18 17 17 14 4 3 5 10 10 7 9 8 2 3 5 8 11 11 12 12 10 8 8 7 9 12 13 14 14 14 15 16 17 18 19 20 20 19 18 16 15 13 12 10 8 6 5 4 2 1 1 2 3 3 4 5 6 7 8 9 9 9 9 9 10 11 11 12 15 18 18 20 22 24 25 25 25 24 22 22 21 21 20 20 19 19 18 17 17 16 16
20 19 19 17 17 18 19 18 17 13 6 3 2 9 10 7 12 11 3 5 6 7 9 11 11 10 9 8 8 8 8 10 12 14 15 16 18 19 20 20 21 21 20 19 18 16 14 13 11 9 7 5 3 3 2 2 2 2 2 3 3 5 6 7 8 9 9 9 9 9 10 10 11 12 14 16 17 19 20 22 23 25 25 24 23 22 22 21 21 20 20 20 19 18 18 17 18
20 20 20 19 18 19 19 18 17 13 9 6 4 8 11 9 11 11 7 6 6 6 8 10 10 9 9 8 7 7 8 9 11 14 16 18 20 23 23 23 22 21 20 19 17 14 12 11 9 7 5 4 3 3 3 3 2 2 2 2 4 5 6 8 8 9 9 9 9 9 10 10 11 12 14 15 17 18 19 20 21 23 24 24 23 22 21 21 21 21 21 21 20 19 18 18 19
21 21 21 19 17 18 18 18 17 15 14 11 9 10 9 10 10 10 13 8 4 5 6 7 7 7 7 6 5 6 8 9 10 13 16 19 22 25 25 23 21 20 19 18 15 13 11 10 8 6 5 5 4 3 3 3 2 2 3 3 4 6 7 9 9 10 10 10 10 10 11 11 11 12 13 14 15 16 17 18 19 21 22 22 22 21 21 22 22 21 21 20 20 20 19 19 20
21 22 22 18 17 19 17 17 17 17 17 17 15 12 7 10 9 9 15 8 4 5 5 6 6 6 5 3 4 6 8 9 10 13 17 20 23 25 24 22 21 20 17 15 12 11 10 10 8 7 6 4 3 2 3 3 4 4 3 3 4 6 8 9 10 11 11 11 11 11 12 12 12 12 13 13 14 15 15 16 18 19 20 21 20 20 20 22 22 21 20 20 20 20 19 20 20
22 24 21 17 18 19 18 18 18 18 18 19 17 14 11 9 6 9 13 8 4 6 8 8 6 4 4 4 6 9 10 12 13 15 19 22 25 25 25 23 23 21 16 13 11 10 9 8 7 5 4 2 1 2 3 4 5 5 4 4 5 7 9 10 11 11 11 12 11 12 13 13 14 14 14 14 14 15 14 15 16 17 18 18 17 17 19 21 21 19 19 20 20 20 19 19 20
23 24 20 18 21 20 18 19 19 18 17 18 18 15 14 10 4 8 10 6 2 4 8 9 7 4 3 5 7 9 10 12 13 15 22 29 29 27 26 24 22 19 15 13 10 9 8 7 6 3 1 1 2 2 3 4 5 5 4 5 6 7 9 10 11 11 11 11 12 13 14 15 15 15 15 14 14 15 15 16 16 16 15 13 13 15 18 19 16 15 17 18 18 18 17 16 16
24 23 20 19 22 22 20 20 19 18 17 16 15 14 14 11 5 6 7 5 3 3 6 9 9 5 4 5 6 7 8 10 13 21 28 31 26 20 20 19 19 17 13 12 9 7 6 5 4 3 2 2 3 4 4 5 5 5 5 6 6 7 9 9 10 10 10 11 13 15 15 16 16 15 14 12 12 14 15 15 15 16 15 13 12 15 16 12 9 10 13 14 14 14 13 11 11
24 22 19 20 23 24 22 21 20 19 18 15 14 14 14 12 9 8 7 5 5 4 4 8 10 6 4 5 6 5 7 11 16 22 22 21 16 10 11 14 17 16 11 10 8 6 4 4 4 3 1 3 5 6 5 5 5 5 6 6 6 7 7 8 10 11 11 12 14 16 16 16 15 14 12 11 11 12 12 12 12 14 15 14 13 13 12 10 7 9 11 11 11 10 9 8 8
23 21 20 21 23 23 22 21 21 19 17 15 14 16 14 11 12 11 8 6 6 4 4 6 8 6 4 5 6 8 8 7 9 12 10 8 3 2 4 12 15 13 12 11 8 5 1 1 3 5 7 10 9 7 6 4 5 6 6 6 6 6 7 9 10 11 12 13 14 16 16 15 15 13 12 11 11 11 11 12 12 12 13 13 13 13 12 13 13 12 11 10 9 8 8 8 8
20 21 21 22 22 23 21 21 20 18 16 15 16 17 15 11 11 10 8 6 5 4 4 4 6 5 5 7 10 9 4 3 6 8 6 4 1 7 2 10 15 13 12 9 7 5 4 4 6 8 11 12 10 8 7 6 6 6 7 6 5 5 7 9 10 11 12 12 14 15 15 14 14 14 13 12 12 11 12 11 10 10 11 11 12 13 12 14 15 14 12 10 8 8 8 8 9
17 18 20 23 23 23 23 22 20 17 16 15 16 18 15 12 10 6 5 3 4 4 4 5 6 5 7 10 10 7 3 1 3 4 2 4 5 7 7 7 9 11 14 11 9 5 3 4 5 6 9 10 10 10 10 9 7 7 7 6 5 6 7 9 10 10 10 11 13 14 13 13 14 14 13 13 13 13 11 10 8 8 9 9 9 10 10 12 15 14 12 10 9 9 8 8 9
15 16 20 22 24 24 24 23 20 18 18 16 15 18 18 14 10 4 2 2 3 3 3 6 7 7 9 11 10 6 2 2 4 5 6 8 7 5 6 8 11 3 12 14 10 5 1 4 5 6 8 10 11 12 12 10 8 8 7 6 5 5 7 8 9 9 9 11 13 13 13 13 13 14 14 14 14 13 11 9 8 8 8 8 7 9 10 12 14 14 12 11 10 8 8 8 9
15 17 21 22 23 25 26 24 21 19 18 15 13 17 21 18 10 7 5 3 4 3 4 5 6 7 11 14 13 6 1 4 6 8 8 9 8 6 6 6 8 8 6 8 6 3 5 9 8 9 11 12 13 13 12 10 9 8 7 6 6 5 7 8 9 10 10 11 12 12 12 12 13 14 15 15 14 13 12 11 10 9 9 8 7 8 10 12 13 14 13 12 10 9 8 8 10
15 16 20 22 23 24 24 22 20 20 18 15 13 17 21 19 11 10 10 7 8 9 7 8 9 9 12 15 14 8 2 3 6 8 8 10 9 8 8 7 7 8 7 7 7 7 10 11 11 11 13 13 13 13 12 10 9 9 8 7 6 6 8 9 9 10 10 12 13 12 12 12 13 14 15 15 14 13 13 13 12 12 10 10 9 9 11 12 13 14 13 12 11 9 9 9 10
14 15 19 22 22 21 19 13 12 14 15 14 14 17 19 18 11 11 12 10 11 12 10 12 14 13 14 15 15 9 3 1 2 7 8 10 10 10 9 7 7 8 7 7 8 8 8 9 11 12 13 14 14 12 11 10 9 9 8 7 7 8 9 10 10 10 11 13 14 13 12 12 12 13 14 15 15 14 14 14 14 13 12 12 12 11 12 13 13 13 13 11 10 9 9 10 10
14 16 17 19 19 20 18 12 8 10 11 12 13 15 16 15 11 11 11 11 13 12 11 14 17 17 16 16 15 9 3 4 5 5 7 9 10 10 10 7 6 7 7 8 7 6 7 10 12 13 13 14 13 12 11 10 10 9 9 8 8 9 9 10 11 11 13 14 14 13 13 12 12 13 14 15 15 15 15 14 14 14 13 14 14 13 13 13 13 12 11 11 10 9 9 10 9
17 17 16 16 16 17 16 10 7 8 10 11 11 12 13 13 12 11 11 12 14 14 13 16 19 19 18 16 15 11 6 7 9 6 4 8 9 9 9 7 5 5 6 7 7 7 9 12 13 14 13 13 13 12 12 11 10 10 9 9 10 10 10 11 12 13 14 14 14 13 13 13 13 13 13 13 14 14 14 14 14 14 14 15 15 14 14 14 12 11 11 10 9 9 9 9 9
18 17 16 16 17 17 15 9 6 7 9 8 8 10 11 11 12 12 13 13 15 16 17 19 20 20 18 15 14 13 11 12 11 8 4 6 6 5 8 6 3 2 3 6 7 8 11 14 15 14 13 13 14 13 13 12 10 10 10 11 11 11 12 13 13 13 13 14 14 13 13 13 12 12 12 13 13 13 12 13 14 14 14 15 14 14 14 13 12 11 11 10 9 9 9 9 9
13 13 14 15 17 19 19 14 10 9 10 10 10 12 11 12 12 12 15 16 16 17 18 19 20 20 18 15 14 13 12 13 13 10 6 6 5 4 6 5 2 0 2 5 7 9 13 15 15 14 13 14 14 14 13 12 10 10 10 12 12 11 13 14 14 14 14 13 13 13 13 13 12 12 13 13 13 12 12 13 13 13 13 13 13 13 13 12 11 11 10 9 9 9 9 9 9
12 13 15 16 18 21 20 17 14 11 13 14 14 14 13 12 13 13 16 18 18 19 20 20 19 19 19 16 15 14 12 11 13 13 10 8 7 6 5 4 2 1 2 5 7 9 13 15 15 14 14 15 15 15 13 11 11 10 10 12 11 12 13 13 13 14 14 13 12 12 12 12 12 13 13 13 13 12 12 12 12 12 12 12 12 12 11 10 9 9 9 9 9 9 9 8 8
17 17 20 21 23 24 22 18 15 12 16 17 13 13 13 12 13 14 17 18 20 23 24 23 21 19 18 17 14 13 12 11 15 16 13 11 11 9 6 4 2 2 2 3 6 10 13 14 14 14 14 15 15 14 13 11 10 10 11 12 12 12 13 12 12 12 12 11 11 11 11 11 11 12 12 12 11 11 11 11 11 10 11 11 11 10 9 9 8 9 9 8 8 8 8 8 7
19 19 22 24 26 28 26 21 16 13 16 16 13 15 14 14 15 17 20 22 23 25 27 26 24 20 18 16 13 13 14 13 17 20 16 14 13 10 7 4 3 2 3 4 7 11 13 14 14 13 14 15 14 14 13 11 11 11 13 13 13 14 13 12 12 12 11 11 10 9 9 9 10 10 11 10 10 10 10 10 10 10 10 9 9 9 9 9 9 9 9 9 8 8 8 7 6
20 20 23 25 25 26 25 22 17 14 15 15 14 17 16 16 19 20 22 25 25 25 27 28 26 21 17 16 15 15 16 15 19 22 18 16 14 11 7 5 3 3 4 6 10 13 14 14 14 14 15 15 14 14 13 13 13 14 15 15 15 15 14 13 12 11 10 9 8 8 8 8 8 9 9 10 10 11 10 10 10 9 9 9 9 9 10 9 9 9 9 9 9 8 7 6 5
23 22 24 27 23 21 21 19 14 12 15 16 15 17 18 18 20 20 21 25 26 25 25 26 25 21 18 17 17 18 16 15 19 21 19 17 15 11 8 5 3 4 6 8 11 14 15 15 15 15 15 15 14 14 14 15 15 16 17 17 16 16 14 13 12 10 8 7 7 6 6 6 6 6 6 7 8 9 9 10 10 10 9 9 10 11 11 11 11 10 10 9 9 9 8 7 6
23 25 27 27 23 20 19 16 12 13 16 14 12 15 16 17 18 17 19 22 22 23 23 23 25 24 21 20 20 20 18 16 18 19 20 18 15 11 8 5 4 5 7 9 11 14 15 15 16 16 16 15 14 15 16 16 16 17 17 17 16 15 13 12 11 8 6 6 5 5 5 5 4 3 3 3 4 5 6 8 9 9 10 11 11 12 12 12 12 12 12 11 10 9 8 7 7
20 23 25 24 21 18 15 12 12 16 15 9 8 8 9 15 19 16 13 17 17 19 20 22 24 24 23 22 21 21 19 18 19 20 20 18 14 11 8 5 5 7 9 11 13 14 16 16 15 15 15 15 15 15 17 17 18 18 18 17 16 12 11 11 9 7 6 5 5 5 5 4 3 3 2 2 2 2 3 4 5 7 8 9 10 11 12 12 12 13 13 12 11 10 8 7 7
18 20 19 17 17 15 11 10 13 14 12 11 13 9 9 16 18 11 10 13 14 16 17 18 21 22 22 21 21 20 18 18 21 23 22 19 15 11 8 6 7 8 10 13 14 15 16 16 15 14 14 15 16 17 18 19 20 20 19 18 16 12 11 11 9 7 6 6 6 6 5 4 4 4 3 3 2 2 2 2 3 4 5 6 7 8 9 10 11 13 13 13 11 10 9 8 8
15 14 11 11 13 13 10 11 14 15 15 17 18 13 11 15 13 5 9 12 11 12 12 14 16 18 19 19 20 18 16 18 22 24 23 19 16 12 9 9 9 10 13 14 14 14 15 15 13 13 14 16 18 18 18 19 21 21 19 18 16 14 13 11 9 7 6 6 7 6 5 5 5 5 4 3 3 2 1 1 1 2 3 4 4 5 5 6 7 9 11 12 11 10 9 8 8
12 8 7 10 10 11 13 14 15 16 15 17 17 11 7 9 7 2 9 12 11 10 10 10 11 14 16 16 17 16 16 20 23 24 23 20 16 12 10 11 12 13 15 16 14 12 13 14 13 13 15 16 18 19 18 19 22 21 19 19 18 15 13 11 9 8 8 8 7 7 6 6 5 5 4 3 2 2 1 1 1 1 2 3 3 3 3 3 4 5 7 9 10 11 10 10 9
11 9 10 12 11 12 13 13 14 11 9 14 19 12 5 6 5 2 6 9 10 9 9 10 10 12 14 14 16 18 20 23 25 26 24 20 16 13 13 14 16 16 16 15 12 10 12 13 12 13 14 16 18 18 18 18 19 20 20 20 18 15 12 9 9 9 9 9 8 8 7 6 6 5 3 2 1 0 1 1 1 1 1 2 3 3 2 2 2 3 4 6 7 9 10 10 10
13 12 13 13 13 14 14 13 12 7 6 15 20 14 6 4 2 3 4 5 8 8 9 11 12 14 15 17 20 23 23 25 27 27 24 20 16 14 15 17 19 18 16 14 11 9 11 11 11 13 15 17 18 18 19 19 19 20 22 20 17 15 11 8 9 9 10 10 9 8 8 6 5 3 2 1 0 1 1 2 2 2 2 2 2 3 2 2 2 2 2 3 5 6 7 7 7
15 14 11 10 9 9 9 9 8 5 5 12 16 13 7 5 2 4 4 4 6 7 8 10 13 17 18 20 24 25 26 28 28 27 23 19 16 16 17 19 20 18 16 14 10 9 10 11 11 14 17 18 18 18 19 19 19 21 21 20 18 17 13 10 10 10 10 11 10 9 8 6 4 2 1 0 1 2 1 1 2 2 2 2 2 3 2 2 2 2 2 3 4 5 6 6 6
15 13 10 6 2 2 3 3 4 5 6 8 10 9 6 6 6 5 5 4 4 5 7 9 12 17 22 25 27 28 32 34 31 26 22 18 17 17 19 20 20 18 15 13 10 9 11 11 12 15 16 16 16 16 15 13 15 17 18 20 21 20 16 12 11 11 12 12 11 10 8 6 4 3 2 2 2 3 3 2 2 2 2 2 2 2 2 2 2 2 2 3 4 5 6 7 7
10 11 11 8 3 2 1 3 1 3 7 9 9 6 4 5 7 7 6 5 5 5 5 7 10 15 22 26 29 32 33 30 25 21 19 19 19 19 19 20 20 17 15 13 11 11 11 11 13 16 17 17 15 15 14 13 16 18 20 22 21 18 17 14 13 13 14 14 13 11 8 7 5 4 3 3 3 4 4 3 2 2 2 1 1 1 2 2 2 2 2 2 3 4 5 7 8
11 11 12 13 10 6 2 4 3 3 4 6 6 4 3 4 6 7 8 7 6 6 6 7 9 13 18 20 21 23 22 18 17 18 19 21 22 22 21 20 20 18 16 15 14 13 13 13 14 17 19 19 17 17 16 16 19 22 22 21 18 16 17 15 15 16 16 15 12 10 8 7 5 3 3 3 4 5 5 3 3 3 2 1 1 1 1 2 1 1 2 2 2 3 4 5 7
14 13 14 15 15 12 6 4 4 3 1 2 3 3 4 6 7 8 10 9 8 9 10 11 12 15 17 16 15 17 17 17 18 20 21 23 23 23 23 22 20 18 17 17 16 14 14 14 16 19 20 19 19 19 17 17 22 23 19 16 16 17 17 16 17 18 16 14 12 10 8 7 4 3 3 4 5 5 5 4 4 3 3 1 0 1 1 1 1 1 2 2 2 3 3 4 6
11 14 16 16 15 14 9 4 2 1 1 1 2 2 4 6 6 8 10 10 10 11 13 15 17 19 20 17 15 18 18 18 19 21 22 23 24 24 25 23 20 19 18 17 16 15 14 16 19 20 18 17 19 20 18 19 24 23 17 15 17 18 18 18 18 17 15 14 12 11 10 7 5 4 4 5 5 5 5 5 5 4 3 2 1 1 1 1 1 1 1 2 2 3 3 3 5
12 14 16 15 13 12 9 3 1 2 1 3 2 2 5 6 4 8 12 11 12 14 15 18 21 22 20 18 18 21 21 18 18 20 21 23 24 24 25 23 20 19 19 17 15 15 15 16 16 14 12 13 17 21 21 21 23 21 18 16 17 18 18 18 19 18 16 15 13 12 10 7 6 6 5 6 6 6 6 6 6 5 4 4 2 1 1 1 1 2 2 3 3 3 3 3 4
15 14 13 11 8 8 10 5 1 1 1 2 2 2 6 9 8 9 13 14 15 16 17 21 25 24 21 19 21 24 22 17 16 18 22 24 24 23 23 22 20 20 19 16 15 16 15 13 10 9 11 14 17 20 22 22 22 22 20 17 16 17 18 19 20 19 18 16 15 13 11 9 8 8 8 8 8 7 7 6 6 6 5 4 2 1 1 2 2 2 2 3 4 4 4 4 3
15 14 13 12 7 7 11 8 4 4 3 1 1 2 4 11 12 10 12 15 16 17 19 24 26 22 18 17 22 26 23 17 17 19 24 26 22 20 21 22 23 23 20 18 17 17 15 10 9 10 12 17 20 21 22 21 21 21 20 18 16 17 18 20 21 21 19 18 17 15 12 11 10 10 11 10 9 8 7 7 7 6 6 4 3 2 2 2 3 2 2 2 3 4 4 4 4
14 15 14 14 11 8 8 7 5 4 3 3 2 2 4 11 14 13 12 15 17 18 20 24 23 17 15 16 21 23 18 14 17 20 25 26 19 14 15 20 23 22 18 17 17 17 14 11 12 15 17 20 22 23 22 21 22 23 21 19 17 17 18 20 22 22 21 20 18 17 14 13 13 12 12 11 10 9 8 8 7 7 6 5 3 3 3 3 3 3 2 2 3 4 4 5 5
10 13 16 16 15 12 7 4 6 5 3 5 5 1 5 12 16 16 14 15 17 19 20 21 19 16 14 15 17 16 11 9 11 14 19 21 13 5 7 15 19 18 15 16 16 16 15 14 14 19 22 22 23 24 24 23 24 24 24 23 20 19 19 21 22 22 22 21 20 18 16 15 14 13 12 11 11 10 9 8 8 8 7 5 5 4 4 4 4 4 4 3 2 3 3 3 4
Wind_Direction
262 264 265 265 269 269 261 257 244 242 244 248 255 257 263 269 271 288 355 347 338 315 281 293 331 317 300 313 308 269 241 267 258 250 262 278 244 210 206 212 216 210 202 205 214 214 201 193 194 191 187 185 184 185 190 195 197 195 196 199 204 210 216 223 226 228 231 234 237 236 233 226 214 205 203 197 189 180 171 170 167 161 163 168 169 157 145 139 129 121 114 106 100 94 90 86 84
260 261 263 264 267 263 257 253 237 244 248 252 261 264 278 274 258 294 16 350 352 308 265 305 345 322 303 26 46 84 111 124 115 150 183 268 227 200 195 201 204 204 210 211 211 210 201 194 193 191 188 186 186 188 193 195 197 195 195 197 201 207 212 216 216 217 223 231 238 240 237 232 221 209 208 203 191 181 172 173 171 165 169 173 173 163 153 150 140 130 121 115 107 99 94 89 85
257 258 261 261 262 258 254 247 236 245 246 258 273 278 293 281 238 294 339 338 343 293 261 226 334 294 165 148 141 108 104 122 117 104 92 128 196 197 197 204 204 205 215 216 208 205 199 195 195 192 189 187 189 192 194 195 195 195 193 194 200 204 208 210 209 210 215 226 236 241 241 238 227 213 211 208 194 183 176 175 175 170 174 179 176 168 161 160 152 139 131 124 114 104 99 93 88
255 257 257 256 257 254 248 245 240 244 250 262 281 297 288 181 131 53 324 334 326 286 244 183 199 201 178 182 174 169 151 129 131 123 119 133 156 186 204 213 207 206 211 211 206 201 197 197 197 194 189 188 191 194 194 193 193 192 190 191 197 201 204 205 209 213 218 226 233 241 242 240 232 218 216 212 197 187 181 178 178 176 179 183 179 173 169 168 162 150 142 133 121 112 106 100 94
254 254 253 252 251 250 243 243 241 245 252 262 277 319 140 163 133 304 320 328 314 267 214 176 184 206 218 208 206 182 158 145 149 145 152 153 171 185 202 215 208 208 210 208 204 200 197 197 197 194 188 188 193 194 193 190 189 188 187 187 191 194 198 205 217 225 227 232 235 239 241 240 235 224 219 213 201 192 187 182 181 182 184 187 184 177 175 174 171 163 153 143 131 121 115 107 101
252 250 250 250 247 247 241 242 247 253 259 269 276 254 229 282 300 298 309 320 302 243 198 184 191 225 247 226 212 185 168 157 150 134 153 166 199 193 203 216 212 211 212 210 205 201 198 195 194 191 187 189 191 191 188 184 183 182 179 179 182 189 203 219 233 240 238 239 238 237 238 238 234 225 214 207 202 196 192 189 187 188 188 189 189 184 182 180 178 174 164 155 145 134 125 116 110
250 248 247 245 244 245 242 249 255 264 268 269 277 264 255 294 301 294 290 280 278 248 212 204 205 235 242 213 202 194 191 166 145 135 154 168 190 197 207 213 215 217 218 214 206 201 196 192 189 187 186 186 186 184 180 175 175 175 173 176 186 207 236 254 253 248 243 239 236 234 234 234 232 222 210 204 200 197 196 195 193 194 192 191 196 192 188 188 185 183 176 168 161 150 138 128 122
247 246 246 244 244 244 247 257 261 267 271 273 286 283 274 302 312 300 280 265 255 243 233 220 218 234 229 220 224 203 236 260 181 145 151 158 177 201 210 209 216 220 220 213 206 199 192 188 185 185 184 180 177 174 170 169 173 176 182 191 216 258 266 266 257 246 237 232 230 230 232 232 231 223 212 206 200 198 199 198 198 201 198 195 200 198 195 196 193 191 187 180 174 164 153 142 135
246 245 245 244 244 248 254 262 266 269 275 293 295 283 297 319 315 300 270 251 242 226 225 219 217 233 235 241 247 222 255 272 281 224 171 169 179 200 206 208 215 219 218 210 203 196 188 184 181 182 179 172 168 167 166 169 178 186 197 224 252 269 259 251 243 237 230 226 227 228 230 230 229 223 214 208 203 200 200 201 201 204 205 201 203 204 200 202 201 199 196 192 187 177 168 159 151
244 243 243 243 242 250 259 265 271 275 291 304 307 341 330 320 306 290 264 231 223 221 218 213 208 222 231 235 242 240 257 265 273 276 267 252 229 211 207 210 211 212 213 206 198 192 185 181 178 179 175 167 164 166 167 170 177 181 190 208 232 236 233 232 229 229 228 227 229 230 231 230 228 224 217 212 208 204 203 203 202 204 208 207 207 209 205 207 208 206 205 203 199 191 183 176 168
242 241 240 241 242 250 262 271 274 279 293 289 338 9 331 314 294 277 259 224 212 220 215 210 207 213 223 228 234 250 259 258 267 271 265 259 257 238 218 216 209 200 203 201 194 189 184 180 178 175 168 164 164 164 162 161 160 145 140 150 210 237 236 235 233 233 232 231 232 232 233 231 228 224 221 217 212 208 207 205 203 204 209 210 211 213 211 211 213 213 213 212 209 204 199 192 185
241 242 239 239 244 252 264 273 277 280 284 277 341 359 331 310 282 263 251 223 211 220 218 215 213 212 225 234 236 251 256 255 265 261 252 248 250 243 224 218 209 190 187 193 190 186 182 179 177 169 162 159 158 157 152 144 135 125 127 219 254 249 247 242 239 239 236 233 232 234 234 232 228 224 225 222 216 211 210 208 206 206 208 212 214 216 215 215 217 218 219 219 218 216 214 209 201
242 242 240 237 243 253 263 269 277 281 276 336 8 8 349 302 261 256 247 220 213 223 218 215 214 217 232 241 237 245 249 250 255 248 243 241 241 240 225 214 202 182 177 184 185 181 178 174 170 162 156 154 151 147 139 130 120 132 241 257 257 248 245 241 236 236 233 229 228 232 233 231 228 226 226 224 219 214 213 210 208 208 208 212 216 218 218 220 221 222 222 224 224 224 225 224 219
239 239 238 234 241 250 259 265 273 278 262 94 13 21 16 318 256 271 248 224 222 226 220 218 220 228 240 245 243 252 255 252 247 240 242 237 233 234 224 209 194 178 173 179 180 176 170 165 160 153 149 147 144 137 126 127 158 247 262 258 253 245 238 235 232 229 227 226 226 229 233 233 231 230 229 225 221 216 215 213 210 209 208 211 215 219 220 223 226 226 227 228 229 231 232 233 233
235 234 232 232 241 246 253 259 264 271 236 100 14 21 26 9 12 9 270 234 229 229 234 231 227 232 240 248 255 263 261 254 244 237 239 231 223 221 215 203 189 177 173 175 174 170 164 157 150 145 144 140 132 125 125 132 257 255 256 253 243 238 234 233 230 224 225 228 232 239 240 240 235 232 231 227 223 218 216 215 212 210 209 210 212 218 221 224 228 230 231 232 233 235 238 239 241
234 232 230 230 239 245 250 253 258 261 209 109 7 7 14 42 32 18 5 275 253 236 246 242 233 236 237 245 252 248 251 250 243 238 235 229 220 214 208 197 185 176 173 170 167 164 159 152 145 142 139 136 131 123 124 148 257 247 241 245 241 238 236 236 231 226 232 239 244 247 246 245 238 231 230 227 222 219 217 215 213 211 210 210 210 215 220 223 228 232 235 236 236 238 241 244 246
234 233 230 233 241 246 253 251 256 255 209 189 323 347 353 39 26 11 3 324 307 254 247 246 238 240 239 241 246 239 243 245 243 238 232 229 220 213 206 194 183 176 172 168 166 165 158 149 142 142 142 141 140 134 145 192 217 222 234 250 250 248 242 238 235 235 240 246 249 248 244 242 236 230 230 226 221 221 220 215 214 213 212 212 211 213 219 223 228 231 235 238 239 241 244 248 251
234 233 230 236 245 249 254 254 259 257 229 213 237 317 342 11 14 12 7 345 316 265 235 238 236 235 237 237 244 245 249 247 243 239 237 233 220 212 205 195 185 176 172 171 172 166 156 149 146 147 156 165 164 163 174 198 206 205 219 236 247 249 243 236 236 239 241 242 244 242 239 235 230 228 229 226 222 222 222 215 212 213 213 214 213 213 218 223 227 230 233 238 241 244 247 250 254
235 235 234 240 249 251 255 257 260 260 248 235 251 287 326 353 357 8 359 348 305 273 226 233 245 240 239 238 253 257 248 247 244 240 241 235 220 211 205 197 186 176 176 178 174 165 155 151 157 166 179 186 177 175 184 202 218 217 220 229 241 244 239 234 232 236 239 241 241 235 231 228 225 225 225 223 220 220 218 213 210 211 213 214 214 213 216 222 227 230 233 237 241 245 249 252 256
235 233 236 244 250 252 256 260 261 264 262 255 261 270 291 334 341 355 353 343 262 272 269 270 283 277 274 278 282 275 260 259 255 246 247 237 219 209 205 202 191 178 176 176 167 163 160 157 167 183 190 190 176 187 213 225 236 234 238 239 239 239 236 233 232 236 240 242 240 229 223 221 221 223 222 220 217 216 213 211 211 213 214 213 211 211 216 222 226 230 235 238 242 244 248 253 256
234 233 240 250 252 253 254 258 261 263 266 267 268 265 277 306 324 345 349 341 257 267 284 279 291 301 294 302 292 284 277 272 267 256 242 227 218 209 201 199 185 171 169 167 160 158 157 162 175 189 188 190 210 239 241 240 247 245 248 245 238 237 235 235 236 239 241 241 236 223 214 214 218 221 220 216 215 216 214 214 216 217 217 213 210 211 218 223 224 229 236 241 243 245 247 251 256
234 237 245 250 251 252 251 253 257 261 265 271 273 270 278 281 306 342 338 337 306 288 288 274 287 294 259 287 291 291 287 281 276 254 227 214 215 207 192 187 173 162 161 153 148 154 157 168 175 174 126 356 302 270 259 255 259 257 258 252 242 236 235 237 241 244 243 239 228 215 210 212 218 223 224 218 218 222 219 218 219 220 220 216 213 214 218 218 218 227 237 241 244 245 246 247 252
237 241 246 246 250 252 250 252 254 258 264 266 269 269 271 267 279 316 303 317 332 298 286 266 268 264 237 274 297 305 287 266 239 216 207 198 193 183 174 176 170 160 151 149 149 150 155 165 157 118 67 6 314 287 269 264 267 272 276 264 249 239 238 240 243 246 242 232 217 208 208 213 220 230 235 229 226 226 223 222 222 223 224 223 220 216 212 200 198 231 239 240 241 240 240 241 247
241 245 247 246 251 254 254 260 261 260 261 259 261 257 254 263 278 279 274 303 299 278 291 259 244 235 250 282 294 280 239 237 227 214 208 191 172 155 158 161 162 157 147 156 155 140 143 157 164 155 160 286 283 275 265 264 274 285 283 265 248 239 240 242 242 241 233 222 209 205 209 215 222 229 234 233 228 223 219 222 222 220 218 217 217 210 198 176 189 244 246 237 236 235 238 242 246
246 251 250 248 251 257 261 267 268 262 257 253 255 250 245 263 282 276 271 297 293 280 302 259 224 222 265 284 260 234 221 250 266 255 256 240 223 344 200 154 141 145 152 162 150 117 115 224 249 261 271 271 266 260 256 260 273 280 271 255 243 237 239 241 239 235 224 211 202 206 212 216 218 219 223 224 219 212 209 210 205 199 198 203 203 198 189 181 205 248 255 241 242 244 247 249 252
250 256 255 253 253 257 260 263 264 261 252 246 250 247 242 262 280 276 270 287 298 289 297 259 219 231 261 263 242 225 233 294 307 288 278 275 14 28 15 149 136 138 140 141 137 98 31 327 296 280 273 268 262 261 262 264 265 261 254 247 240 234 236 237 233 226 214 201 199 208 213 213 211 211 217 219 212 210 209 206 199 193 194 198 195 194 189 188 212 247 258 252 256 256 257 258 261
247 252 254 254 254 254 255 256 257 255 246 239 248 246 239 259 270 265 265 270 299 292 261 234 231 241 249 257 246 243 286 312 350 326 28 69 99 70 49 95 117 159 161 145 151 141 12 319 284 263 259 254 254 262 267 269 264 252 245 240 233 228 229 229 227 217 203 194 200 206 208 207 205 208 216 214 209 213 214 209 208 207 208 206 197 199 202 203 225 252 259 259 261 258 262 265 267
239 241 247 249 252 254 253 253 251 249 244 234 246 249 238 249 254 223 208 254 299 299 215 218 235 241 244 248 240 249 294 142 91 66 79 80 97 93 69 61 43 88 176 172 171 166 268 258 227 224 232 235 245 256 260 262 257 248 240 231 228 222 222 221 218 212 202 196 198 199 199 202 205 209 212 209 209 214 218 220 222 224 225 221 209 210 218 227 244 260 262 263 263 261 264 265 267
234 237 245 247 249 251 251 252 249 243 239 231 249 257 239 235 236 206 203 254 286 282 221 224 242 244 247 239 224 219 160 139 108 88 86 86 95 89 83 85 61 67 119 148 154 166 211 214 206 211 220 229 239 244 248 250 248 244 236 230 228 217 214 212 207 205 203 196 190 191 194 199 202 203 204 205 210 216 221 230 235 238 237 236 234 231 238 249 258 263 266 268 269 267 265 262 264
234 239 247 251 251 253 254 257 256 246 239 233 251 266 243 227 229 224 222 238 259 271 273 271 266 252 252 244 230 225 194 132 112 111 101 96 109 115 103 110 131 133 130 136 159 195 210 209 207 213 220 229 235 235 240 242 239 237 232 230 225 212 206 203 202 199 194 189 184 186 190 193 194 194 198 205 213 219 225 232 239 244 245 247 253 255 258 263 266 267 269 270 269 267 263 261 259
237 241 247 253 258 260 258 257 260 253 245 242 253 267 254 235 235 239 234 233 239 259 276 278 272 260 261 256 242 240 248 263 138 133 120 114 124 135 134 129 141 161 176 178 186 202 210 209 214 218 221 231 235 233 235 229 228 229 228 226 214 206 201 196 195 190 186 184 183 185 187 191 194 198 204 211 219 226 232 237 242 246 250 255 260 264 268 268 268 267 267 266 265 263 261 259 257
240 246 248 251 259 263 260 258 262 258 250 251 256 266 266 254 248 246 239 233 235 251 264 267 268 264 266 263 247 239 242 263 230 169 132 131 135 136 142 142 146 164 177 182 192 204 214 218 223 224 221 229 233 231 227 219 223 226 225 221 205 200 198 193 189 185 184 185 186 190 194 200 207 213 218 223 229 234 238 239 243 248 252 256 258 261 264 262 262 262 262 261 259 259 258 258 257
240 248 253 254 261 267 271 268 255 254 251 250 257 266 271 266 260 258 249 240 240 246 250 257 262 260 261 258 244 236 247 262 243 214 154 137 142 144 151 150 145 164 180 189 196 204 219 227 228 225 224 227 227 226 221 218 221 222 222 212 198 196 194 189 187 187 187 187 191 197 202 209 216 222 225 228 232 235 237 239 243 247 249 251 252 254 255 254 256 258 258 256 255 255 255 256 255
244 251 260 264 266 271 275 267 229 238 248 246 264 273 270 261 257 263 260 253 248 244 244 252 258 256 256 251 239 237 251 258 246 235 195 161 161 150 157 163 148 155 203 216 214 207 215 227 228 226 227 225 223 220 218 220 219 218 218 203 193 194 191 188 188 188 189 191 197 202 207 212 216 221 224 227 230 233 237 240 242 244 245 248 249 250 250 251 255 254 253 252 252 253 253 256 255
251 259 269 271 267 265 266 262 245 245 255 258 273 277 270 255 245 251 256 253 247 242 244 251 254 254 253 245 238 239 247 250 244 239 221 204 211 183 169 172 161 174 262 253 241 216 212 222 227 226 225 223 222 218 217 221 217 216 215 199 193 195 192 191 190 190 192 196 201 205 208 212 216 223 228 232 236 239 240 241 243 245 247 249 249 248 250 252 252 250 248 248 249 251 253 256 257
261 265 269 273 270 262 258 259 256 261 272 272 277 282 279 261 241 240 249 248 242 240 243 245 245 248 250 245 241 240 241 240 238 236 232 229 228 217 198 183 177 254 288 276 254 222 214 223 228 227 224 222 221 220 223 222 216 218 213 201 198 198 196 193 192 193 196 197 200 205 210 216 222 229 233 236 241 243 243 244 248 250 249 249 249 249 249 249 248 247 247 247 249 250 251 253 254
261 265 267 271 271 265 260 261 258 267 285 284 283 289 285 270 253 247 253 251 239 237 242 241 235 236 241 243 242 242 243 235 231 234 236 236 233 229 218 197 202 252 278 272 245 220 216 225 230 228 225 222 221 223 225 219 215 218 212 204 203 202 199 195 193 196 198 199 203 210 216 221 226 230 234 237 240 240 241 244 246 249 250 251 251 250 249 248 246 246 247 248 249 249 250 250 246
260 262 266 269 269 268 268 266 260 267 287 287 287 294 288 277 268 262 260 253 239 236 240 238 231 228 231 238 242 245 246 234 228 233 235 234 233 232 225 209 211 233 235 223 218 214 213 219 225 225 223 220 220 224 221 213 211 212 206 203 203 203 200 195 196 199 201 203 208 216 222 226 229 233 237 239 237 235 236 238 241 244 247 249 250 248 248 248 246 247 248 248 247 246 246 241 236
257 257 263 266 268 274 273 268 264 270 286 287 290 297 296 286 279 270 261 251 241 238 242 239 232 227 225 230 237 245 248 239 231 234 235 232 230 231 230 219 222 235 226 206 204 208 209 212 218 221 220 216 217 221 215 206 207 208 203 201 203 203 201 199 201 203 206 211 216 223 227 230 233 233 232 233 233 232 231 235 239 241 243 244 247 246 246 245 243 244 246 245 243 240 233 225 228
255 253 258 262 270 280 276 270 265 271 286 290 296 302 300 292 286 274 254 244 241 239 240 237 230 228 227 232 243 252 259 252 239 237 235 229 228 234 233 224 235 239 224 211 205 206 207 211 217 221 220 214 213 216 212 206 206 207 204 202 204 204 203 202 202 205 213 221 223 226 226 225 224 221 218 220 226 227 230 236 240 242 245 245 247 247 243 239 236 236 238 238 235 232 226 221 227
255 253 255 262 269 273 271 272 276 283 288 290 300 305 296 291 296 283 245 228 228 227 224 222 221 224 228 237 245 250 257 253 244 240 234 230 232 235 230 224 236 227 217 212 206 207 211 215 218 221 222 217 210 211 211 207 207 209 207 203 206 207 205 201 198 204 216 221 218 215 213 209 201 195 190 194 205 211 221 231 235 239 242 243 246 246 242 237 233 232 232 231 227 224 224 226 230
259 255 255 262 268 266 264 270 282 292 292 294 310 312 293 292 303 293 236 202 198 203 207 211 216 222 228 233 236 239 243 240 236 233 228 229 232 231 228 224 223 217 211 210 208 211 216 219 221 222 222 220 214 211 211 207 207 211 208 204 205 206 202 199 201 207 208 204 201 197 193 187 171 156 146 149 158 171 192 211 222 230 235 239 243 244 242 237 231 228 228 229 228 225 223 225 229
265 261 256 258 261 257 253 259 273 284 288 295 299 289 276 287 296 284 213 180 176 188 197 205 210 219 226 228 233 238 239 232 228 224 221 225 228 227 228 222 215 212 211 212 213 216 221 223 223 224 223 222 220 215 211 209 209 212 208 202 199 195 194 200 206 208 201 196 190 180 173 159 138 128 120 116 116 125 152 186 213 229 237 243 244 243 240 235 228 224 223 226 230 232 231 227 230
266 270 253 242 248 249 253 267 271 274 282 289 288 279 266 273 286 262 187 167 163 175 186 194 200 212 221 227 236 238 230 224 221 219 220 222 223 224 222 216 214 213 213 217 219 222 229 230 228 228 225 220 220 217 213 211 212 213 207 201 197 191 191 198 205 200 191 188 182 164 150 138 127 117 111 110 114 123 137 167 215 241 249 254 253 248 242 233 226 222 221 223 225 231 234 230 231
262 278 260 245 251 258 266 275 274 272 282 285 282 280 264 264 285 246 171 161 157 161 168 181 192 205 215 224 228 217 211 216 214 213 217 219 219 220 214 212 216 217 217 221 224 228 236 237 234 231 226 220 219 215 211 211 214 212 204 201 200 194 191 194 194 188 181 179 172 155 141 135 128 118 114 116 118 122 127 145 181 222 242 252 254 253 256 247 234 226 224 223 223 227 230 230 230
274 286 275 264 264 269 271 275 271 264 264 269 275 281 270 270 285 200 160 150 150 153 161 176 188 200 210 214 207 202 206 209 206 208 213 214 215 214 208 210 217 220 222 225 227 230 235 237 236 232 227 221 218 213 210 211 212 209 204 201 197 188 187 189 184 180 176 171 165 154 145 139 133 126 124 122 106 68 5 331 318 292 266 258 252 252 259 257 247 232 223 219 217 217 222 227 229
290 289 278 271 271 271 271 268 262 255 253 260 273 282 265 262 281 179 170 146 142 148 163 176 185 195 205 203 196 198 203 201 201 206 210 211 212 209 205 210 218 222 224 227 234 235 229 229 230 228 221 213 212 210 207 206 206 204 201 198 189 178 179 183 177 172 169 165 163 158 151 147 146 143 139 138 276 295 310 314 316 315 302 288 275 273 276 271 263 256 231 213 202 198 208 219 222
285 283 269 265 267 261 261 257 234 220 261 262 270 277 248 224 231 179 166 143 133 139 156 172 188 196 200 197 196 200 201 197 198 202 206 210 211 206 204 211 219 223 223 227 238 236 223 223 225 222 214 206 206 208 206 205 205 201 197 194 183 174 178 181 171 165 165 164 164 163 158 156 161 171 192 215 288 298 310 307 301 298 299 300 295 293 298 291 275 263 247 228 210 200 203 208 210
278 267 234 221 250 237 243 245 206 215 242 248 261 265 229 220 238 208 172 148 125 133 153 167 187 201 202 197 198 205 204 198 193 193 201 210 212 209 208 214 220 222 223 227 234 227 218 220 220 212 207 204 204 207 207 202 195 190 189 185 178 176 184 183 170 167 168 167 168 169 169 170 176 200 226 245 283 296 304 308 304 300 309 314 300 293 289 273 256 243 233 226 217 211 211 210 212
269 243 207 188 153 85 278 254 276 263 239 235 245 241 209 218 229 213 193 169 141 141 154 165 186 206 208 203 204 210 209 199 189 189 201 212 214 213 214 218 221 219 220 226 225 216 212 215 212 203 200 199 195 193 192 183 175 173 175 176 177 185 190 182 172 173 171 170 174 176 179 184 188 201 221 250 274 285 294 301 309 311 314 313 297 277 264 253 247 236 221 211 204 205 209 212 215
268 252 223 210 196 174 219 225 213 241 214 211 219 205 204 214 215 214 203 186 169 166 172 177 188 205 213 213 215 218 212 196 188 195 207 213 214 216 220 222 221 217 218 223 219 211 209 209 206 200 194 189 184 182 180 177 174 172 173 177 187 197 191 180 177 178 175 176 180 184 188 188 187 196 223 255 270 284 298 304 305 305 308 315 298 251 247 247 249 238 219 203 188 185 193 200 207
258 247 224 218 214 208 217 221 223 234 150 151 191 201 231 224 223 221 207 203 197 185 188 190 192 199 204 206 207 205 199 194 199 206 212 215 216 219 224 225 222 218 219 220 215 213 211 205 202 201 191 180 178 180 178 176 175 174 176 182 195 200 192 183 182 180 178 182 187 189 188 182 181 202 228 248 266 283 296 303 301 297 299 302 247 193 205 218 226 221 212 201 180 171 175 181 188
229 223 214 216 218 215 217 217 222 224 124 213 207 205 225 217 225 222 208 209 202 192 193 193 194 195 192 191 195 200 204 207 209 212 218 222 222 223 226 227 224 220 220 217 214 216 215 206 203 199 185 174 177 179 177 175 177 180 184 187 196 202 195 186 185 184 184 189 193 191 186 183 191 210 224 241 259 272 282 288 288 286 285 278 246 175 164 174 181 175 173 174 170 168 167 168 172
213 212 211 210 207 207 208 197 65 77 144 235 231 238 219 200 214 219 206 202 201 199 194 189 190 188 187 195 203 206 213 218 216 217 224 228 226 225 228 230 227 223 221 219 219 222 219 213 207 191 172 172 179 179 178 179 182 189 194 194 198 201 195 188 189 191 192 195 197 193 191 197 207 213 222 231 242 253 263 271 276 278 274 267 255 197 157 150 144 130 128 134 144 151 155 160 169
224 226 221 211 203 201 197 181 110 155 184 271 273 280 227 208 216 218 205 200 200 200 195 190 189 187 192 205 206 206 215 227 230 227 229 232 231 230 229 228 226 222 222 224 227 229 226 219 202 174 163 171 179 183 185 186 189 194 196 197 201 199 195 193 193 194 196 198 198 199 202 210 215 218 222 225 232 241 253 266 275 279 275 268 253 213 162 135 121 108 113 119 122 123 126 135 146
226 228 223 216 217 207 191 185 180 171 173 228 271 323 237 215 219 217 205 201 200 201 198 194 192 195 210 217 209 209 216 229 238 237 238 238 238 237 228 220 218 218 221 226 227 229 229 214 190 182 179 176 177 185 189 190 194 196 195 199 204 202 199 197 195 195 197 199 201 204 209 215 217 220 223 224 229 236 248 263 273 278 274 264 240 208 169 139 124 113 105 96 90 89 91 100 106
216 213 212 208 206 198 184 191 198 167 153 165 163 310 234 213 217 218 211 206 204 204 201 200 203 215 234 229 219 219 222 232 243 248 249 248 251 254 230 213 214 216 220 227 229 229 226 205 182 183 186 182 182 188 191 192 196 198 200 203 206 209 207 203 199 198 199 201 206 209 213 216 217 219 223 225 228 234 244 257 267 271 267 251 226 202 180 161 149 138 120 88 69 68 76 89 93
215 219 221 213 207 202 184 191 205 185 170 174 167 217 229 214 215 218 217 213 207 204 204 209 217 225 227 219 219 226 227 233 243 246 249 249 254 262 202 198 208 213 217 227 232 230 224 211 194 185 185 186 188 190 191 193 196 200 205 209 211 214 213 209 203 202 204 206 210 213 215 217 217 218 223 226 229 233 239 252 266 270 264 246 221 204 190 179 166 154 140 123 103 82 82 93 98